Theta_e
326 316 314 316 311 315 311 305 300 298 296 293 289 296 297 297 298 299 300 301 301 303 301 305 307 309 309 309 310 309 310 311 309 306 305 315 331 336 338 339 341 341 341 341 342 343 344 344 344 344 345 346 346 345 343 341 341 341 341 340 339 340 340 340 341 342 341 337 337 340 341 340 340 341 340 340 340 339 339 339 339 342 343 343 343 344 344 344 343 343 344 345 345 345 345 345 344
320 316 315 314 315 313 309 300 294 290 290 290 292 291 293 294 299 299 300 300 301 305 309 314 315 314 313 313 314 315 314 317 310 319 323 330 336 337 339 340 340 339 339 340 340 340 342 344 343 343 343 345 345 344 342 342 341 341 340 340 340 342 342 345 346 345 342 340 339 337 339 340 339 340 340 341 341 341 341 340 340 340 341 343 343 343 343 343 344 343 344 344 344 344 344 343 343
318 316 318 315 313 306 304 301 300 286 288 289 288 292 293 295 298 299 301 299 302 312 313 313 311 310 311 307 305 307 310 323 321 325 327 334 329 333 339 341 341 339 338 339 338 339 340 342 342 342 340 345 345 344 343 343 339 340 339 339 340 343 343 345 345 345 343 341 339 339 339 339 340 339 339 338 338 339 338 338 339 340 342 343 343 344 343 344 344 344 344 344 344 343 344 343 343
318 316 317 311 312 304 298 295 292 290 292 289 288 291 292 296 298 300 300 300 312 311 305 309 310 311 310 304 306 316 316 318 324 327 325 329 331 337 339 340 340 338 338 338 337 338 340 341 342 343 341 339 344 344 343 343 340 339 338 339 344 343 343 343 343 342 341 339 337 337 335 334 335 336 336 338 339 338 337 337 338 339 340 341 342 343 342 345 344 345 344 344 344 343 342 343 342
321 320 313 307 304 303 296 292 290 290 292 288 294 292 293 294 300 297 301 300 310 302 304 308 312 314 313 313 312 310 314 323 326 330 329 334 339 340 340 340 339 337 337 337 337 339 342 340 341 341 339 340 342 343 343 341 339 339 338 342 343 342 342 342 341 340 339 339 338 338 340 339 337 336 340 339 338 338 339 338 339 339 340 343 342 343 343 343 343 343 343 343 343 343 342 342 341
317 314 311 312 306 305 298 295 295 294 294 291 294 295 293 295 299 298 302 303 308 301 302 305 311 312 314 318 316 318 322 318 326 328 332 334 339 341 340 339 337 336 336 337 338 339 341 338 340 341 341 343 345 345 343 341 340 339 338 339 339 339 338 340 340 341 342 339 337 343 344 344 343 342 342 341 341 341 340 339 339 338 338 340 341 341 341 341 342 342 342 341 342 342 342 341 341
318 307 305 307 301 301 296 291 289 290 295 292 296 294 296 295 299 301 302 307 305 302 300 307 309 311 312 313 319 322 323 324 328 328 335 337 340 340 339 338 337 335 336 337 337 338 339 338 342 344 346 345 344 344 345 341 340 338 338 338 339 337 337 339 340 342 341 339 338 343 342 342 341 341 341 341 341 341 341 341 341 340 340 340 341 342 342 342 343 343 342 342 342 342 341 340 340
317 311 306 301 296 295 291 289 290 290 296 291 294 296 295 296 297 304 302 303 302 303 305 307 306 306 307 314 315 322 321 323 326 336 339 339 340 339 339 338 336 335 335 336 336 338 340 337 341 341 344 344 345 344 345 344 340 339 338 337 337 338 338 338 338 340 341 338 337 337 338 338 339 340 339 338 338 339 339 339 338 338 339 341 341 341 341 341 341 341 342 342 341 340 340 340 339
309 307 304 301 293 290 287 292 292 290 291 292 293 293 303 296 300 303 301 299 301 301 307 311 306 303 305 309 309 319 321 326 330 337 338 338 338 339 338 337 335 334 336 336 336 338 339 337 339 341 343 345 344 345 345 345 343 340 338 336 336 336 342 343 343 342 340 338 336 337 337 337 337 337 337 338 338 338 338 338 338 338 338 338 340 340 340 340 341 341 341 341 340 339 339 339 338
308 308 302 298 294 295 286 287 293 295 293 293 294 297 297 298 298 300 300 300 302 305 308 303 303 301 305 311 312 320 324 328 334 336 337 338 338 338 337 337 336 334 334 336 336 337 339 341 336 338 341 344 345 345 345 345 343 341 339 336 335 336 338 342 341 340 339 337 336 336 337 337 337 337 337 337 337 337 338 338 338 337 337 337 337 339 339 339 340 340 340 340 338 339 338 338 338
303 304 302 299 290 289 292 287 286 291 292 292 292 293 297 299 299 296 297 302 301 306 306 305 307 307 311 310 313 319 321 325 333 332 336 338 338 337 336 336 336 335 333 336 335 337 339 340 337 336 339 341 343 345 344 345 344 341 340 337 336 336 337 338 338 337 336 335 335 336 337 336 337 337 337 337 337 337 337 337 337 337 337 336 337 340 339 339 339 339 339 339 338 337 337 337 337
301 299 300 290 290 291 288 290 288 290 292 291 300 297 297 299 297 299 298 301 301 300 304 307 306 309 306 305 313 318 323 329 333 335 337 338 337 337 336 336 335 335 335 336 337 337 338 339 340 338 335 336 339 341 342 343 343 342 341 338 337 337 336 336 336 338 340 338 337 336 337 336 337 336 336 336 338 336 336 336 336 336 336 336 336 337 339 338 338 338 338 338 337 336 336 336 336
301 299 296 294 292 291 288 289 290 293 291 291 299 299 298 299 301 299 298 299 298 301 303 304 310 309 303 307 315 314 324 329 333 336 337 337 337 338 337 335 334 334 335 337 336 337 337 336 337 339 336 332 333 335 338 339 341 342 340 340 339 339 339 337 335 341 343 342 341 338 338 337 336 336 336 338 339 338 336 335 336 336 336 336 336 336 338 338 338 338 338 336 336 335 335 335 335
300 300 299 296 290 289 289 292 288 293 290 296 293 294 299 301 300 297 299 301 298 300 303 303 313 310 308 308 310 315 323 330 332 336 337 337 338 337 336 334 333 333 335 335 334 336 337 335 335 335 337 338 337 335 333 336 338 339 339 339 339 339 339 341 341 341 342 341 339 339 339 339 338 339 338 337 337 337 336 337 338 336 336 336 335 335 336 337 337 337 337 336 336 335 335 334 333
304 300 295 292 291 292 289 293 293 289 296 295 296 297 298 300 295 296 302 300 301 301 307 311 314 303 299 303 305 315 322 329 332 335 335 336 336 335 335 333 332 333 333 333 333 335 335 335 335 335 335 336 334 336 339 339 333 336 336 337 336 337 339 338 338 337 338 338 338 337 337 335 335 335 335 335 335 334 333 332 335 337 335 335 334 334 335 336 336 336 335 334 334 333 333 333 332
302 299 296 295 292 290 292 290 286 289 296 292 294 292 298 298 295 300 299 302 302 302 306 310 307 303 305 303 311 311 321 330 333 334 334 334 334 334 333 332 331 332 332 332 331 333 335 336 336 335 335 334 334 334 335 337 332 331 333 334 334 335 335 335 334 332 330 331 331 331 330 332 330 332 328 333 330 332 331 331 332 335 335 333 333 334 334 335 335 335 335 334 332 331 330 329 329
303 301 297 289 293 291 293 292 290 293 292 291 291 296 299 299 297 297 297 300 303 305 307 309 308 314 309 306 312 316 322 330 331 332 332 331 331 331 331 330 329 329 330 331 331 331 334 334 336 335 334 333 334 334 334 335 334 330 330 330 330 331 332 330 329 324 323 323 325 323 326 334 335 335 335 335 326 334 324 326 330 334 335 333 333 332 333 334 334 335 335 334 331 327 322 321 322
305 298 292 292 289 291 293 293 292 296 294 296 294 293 298 297 297 301 301 301 301 304 306 307 310 312 316 318 315 316 326 329 330 329 329 329 330 328 328 329 328 326 328 329 330 331 332 333 334 335 334 334 334 333 334 334 333 331 336 337 336 333 328 325 328 331 327 330 321 328 332 332 333 333 333 331 334 333 331 324 328 333 334 333 334 332 332 333 333 334 333 331 329 324 318 321 320
298 293 294 294 290 295 296 294 294 294 296 295 294 291 297 299 297 298 298 296 301 302 303 304 309 310 313 315 318 323 326 328 329 329 328 328 328 327 327 328 327 328 327 329 329 331 331 331 333 334 335 334 334 335 335 334 333 333 333 334 334 328 331 329 330 328 328 328 328 329 329 331 331 332 332 331 331 323 331 324 327 329 331 330 332 333 333 332 332 332 329 327 325 320 321 323 324
299 297 293 291 295 296 295 293 294 294 295 295 294 293 294 297 297 297 299 296 298 299 300 302 305 307 313 315 320 323 326 327 329 328 328 328 329 328 327 327 328 328 327 328 329 330 331 331 332 333 333 335 334 335 335 334 334 333 333 332 330 331 331 329 328 327 327 327 327 328 328 328 329 330 326 326 325 330 327 322 322 323 324 323 323 326 324 324 324 323 323 320 317 318 323 324 325
300 297 292 295 296 297 297 294 295 292 293 295 293 292 293 294 295 298 295 298 298 299 300 303 303 306 312 315 320 322 325 326 327 328 328 328 329 329 328 329 329 329 329 330 330 329 330 331 331 331 332 334 334 334 334 334 334 334 333 332 330 329 330 328 328 327 327 327 326 327 327 326 326 326 326 326 327 327 328 328 329 329 327 326 319 325 323 322 320 324 320 318 319 320 324 324 325
298 295 296 296 293 295 298 294 292 292 290 292 290 295 297 295 295 295 297 297 298 299 302 301 303 306 313 316 319 322 324 325 326 327 327 328 328 328 329 331 333 332 331 329 329 329 330 331 331 331 331 333 333 334 333 333 333 333 333 332 330 327 327 328 327 327 326 326 326 326 325 325 324 325 326 326 325 326 327 326 325 324 324 324 320 325 322 321 319 319 318 320 317 320 323 323 322
296 294 293 294 294 296 296 293 292 291 292 292 293 295 294 295 294 293 296 299 298 296 296 301 302 309 316 320 320 321 323 324 326 326 327 327 328 329 328 330 331 330 331 330 330 331 330 331 331 331 330 331 332 333 333 332 332 333 333 332 331 329 328 327 327 327 326 325 325 325 327 325 324 324 324 324 325 324 326 324 324 322 324 324 321 322 323 318 318 319 319 319 316 321 324 322 323
294 293 293 294 292 295 294 296 291 289 292 293 292 294 296 293 295 293 295 299 295 297 297 295 301 313 318 319 320 321 323 325 325 327 329 329 329 329 329 329 332 333 331 331 332 332 331 331 331 331 330 330 331 333 332 330 331 332 331 331 331 330 328 328 327 327 325 324 324 325 325 326 325 324 324 324 324 324 324 322 321 322 321 323 320 322 322 319 320 319 319 320 321 321 324 324 323
298 296 296 294 292 292 292 292 290 290 290 291 292 295 294 293 294 291 294 298 296 295 308 310 312 315 317 318 319 321 322 324 325 327 328 330 331 331 332 332 333 333 331 331 332 332 333 332 332 331 331 330 330 332 330 330 330 330 331 330 329 328 330 329 328 327 325 325 325 325 324 325 325 325 324 324 322 324 322 323 322 322 321 322 321 322 321 323 322 319 320 322 320 323 323 325 322
300 299 297 296 294 294 293 293 292 290 290 290 294 292 291 290 291 294 298 295 294 302 310 311 312 314 315 317 319 320 321 322 325 325 326 329 330 329 330 331 332 331 332 332 332 333 334 333 332 331 331 330 330 330 330 329 329 329 330 329 329 329 329 329 329 327 326 325 325 325 324 326 325 325 325 324 324 323 322 322 322 323 323 322 321 323 321 322 325 322 321 322 323 324 324 324 321
300 300 298 298 298 295 295 295 294 291 292 290 295 291 293 292 294 294 293 292 298 306 308 309 312 313 314 316 318 320 320 321 323 325 325 325 327 328 329 331 331 331 332 331 332 333 333 334 333 333 332 331 331 330 330 329 329 328 329 329 329 328 329 329 329 328 327 325 326 324 325 325 325 325 325 325 324 325 323 322 322 321 322 322 321 322 320 323 323 324 325 325 325 324 324 322 321
295 294 294 295 295 296 294 295 293 294 295 289 294 292 291 292 293 295 296 293 299 301 306 310 311 311 313 314 316 318 319 321 322 323 323 322 324 326 328 329 330 331 331 331 332 333 333 333 334 334 333 333 331 330 330 329 329 329 329 329 329 329 329 328 328 327 326 327 326 325 325 325 324 325 325 324 325 324 324 324 323 321 323 323 321 322 323 321 323 323 321 321 322 322 323 322 321
293 295 296 294 295 297 297 298 294 293 295 291 292 293 291 292 292 297 293 297 298 299 302 307 309 309 310 312 314 316 318 319 320 321 323 324 326 327 327 330 330 330 332 333 333 332 332 333 333 334 334 333 332 331 331 330 330 330 329 329 329 329 328 328 327 327 326 326 326 326 325 325 324 325 324 325 323 325 324 323 323 323 325 324 322 321 321 321 321 321 321 320 320 320 320 322 321
293 293 293 293 293 293 298 295 293 294 295 290 293 289 288 291 295 295 292 299 297 298 300 304 307 309 308 309 312 315 316 316 318 321 323 323 324 326 327 329 330 331 331 332 333 331 332 333 333 334 334 333 332 332 332 331 331 331 330 331 330 330 329 328 327 327 327 326 326 326 326 325 324 325 325 324 325 324 324 323 323 324 324 323 322 322 322 322 322 322 325 322 320 321 322 323 322
293 292 293 292 293 291 296 297 292 297 294 291 293 289 289 290 293 294 292 298 297 298 299 302 304 306 308 309 311 313 315 317 319 321 322 323 324 324 325 328 329 330 330 330 330 331 331 332 332 332 332 333 332 332 332 332 332 332 332 331 332 331 330 329 329 328 327 326 326 326 326 326 325 324 325 325 324 324 324 323 322 322 323 321 321 322 323 323 322 322 322 322 322 320 320 321 321
293 293 290 287 291 292 293 293 295 299 294 292 294 288 290 294 296 292 290 296 295 296 296 298 301 305 306 308 311 312 314 316 317 318 320 322 323 323 324 325 327 328 329 329 330 331 330 331 331 331 332 333 333 332 333 333 333 333 333 328 332 332 331 330 329 329 328 327 326 326 326 326 326 325 324 325 324 323 323 322 323 324 323 322 322 323 322 322 322 322 322 322 322 322 320 322 320
290 292 287 286 286 290 293 296 291 294 294 296 294 290 287 292 292 291 289 296 296 295 294 294 297 301 305 308 310 312 313 314 314 316 318 320 321 323 324 324 325 326 328 328 328 329 329 330 328 329 330 332 333 333 333 333 334 334 334 333 332 332 331 331 330 330 329 327 326 326 327 326 326 326 325 324 324 323 323 323 324 324 324 322 322 322 322 323 323 322 322 320 321 322 321 321 321
288 289 290 286 285 286 290 292 292 293 293 292 292 289 290 293 294 292 290 294 295 295 296 294 294 297 302 305 307 309 310 312 314 316 317 319 321 322 324 321 324 325 326 327 328 328 328 328 328 328 330 332 333 333 333 333 333 334 334 333 331 332 332 332 332 331 329 328 327 327 327 327 326 326 326 324 324 324 324 324 325 325 324 323 323 324 324 324 323 323 323 322 321 320 321 321 321
289 285 286 287 285 285 288 290 293 291 291 290 290 289 291 293 295 295 291 291 294 295 295 295 295 295 298 301 304 306 308 310 312 316 317 319 319 320 322 322 323 324 325 325 326 327 327 327 327 326 328 330 332 333 333 333 334 333 333 333 331 331 331 332 332 331 331 329 328 328 328 327 326 327 326 325 325 325 324 325 325 325 324 324 323 324 324 323 323 322 323 323 319 319 321 321 321
289 288 287 286 286 286 286 288 289 291 291 289 288 289 290 293 293 295 292 290 293 293 291 290 291 292 293 297 300 303 305 307 312 314 315 317 318 319 320 322 322 323 324 324 324 326 326 327 327 326 326 328 330 332 333 332 332 330 329 330 329 329 330 329 331 331 331 330 329 328 328 327 327 326 327 326 326 326 326 326 325 325 324 324 323 322 322 323 323 321 320 321 321 319 317 319 318
289 289 288 286 287 286 287 287 289 289 290 288 290 290 289 291 292 293 295 289 290 290 291 292 292 292 293 293 295 299 301 304 307 308 311 313 315 317 319 320 321 321 322 323 323 324 325 326 325 324 326 326 327 328 329 329 328 329 329 328 327 329 328 329 329 330 330 331 330 329 329 328 328 327 327 327 326 324 326 327 326 325 325 325 324 324 325 324 325 323 323 319 320 319 321 319 318
289 287 287 284 286 287 287 290 290 288 289 286 286 286 288 289 292 293 294 290 292 293 292 291 292 292 293 293 293 294 297 299 300 301 301 308 312 314 316 318 318 319 320 321 322 323 324 325 325 326 327 325 326 327 328 329 330 330 329 329 329 330 329 327 328 329 330 330 329 329 329 328 329 329 327 328 328 328 326 326 326 326 325 324 325 326 325 320 322 321 319 319 317 321 321 318 319
287 287 285 284 285 286 287 288 288 288 288 287 285 286 288 290 291 293 292 292 294 294 294 295 295 294 293 293 293 294 294 295 296 297 299 302 307 310 313 316 318 320 321 321 322 323 323 323 325 326 326 326 325 325 327 328 330 331 332 331 331 329 330 331 331 331 330 330 330 330 329 329 329 329 329 327 328 328 327 327 327 327 326 325 325 325 325 324 324 322 319 322 319 316 319 317 318
286 285 285 285 286 287 288 287 287 288 289 287 285 285 288 289 290 291 292 292 293 295 293 294 294 295 295 295 296 295 294 295 296 297 297 298 302 306 309 312 315 318 319 320 321 322 322 322 324 325 325 326 326 325 323 328 329 330 331 331 331 332 329 329 331 330 330 329 328 329 329 329 329 329 329 328 328 328 328 327 329 329 329 327 326 325 323 322 321 319 319 319 321 320 317 317 316
287 287 285 284 285 286 286 286 287 286 286 285 285 286 286 287 290 291 292 289 290 293 291 291 291 292 294 295 294 294 295 296 296 297 296 296 298 301 306 309 313 315 317 319 320 321 322 323 323 324 325 325 325 324 324 326 325 325 325 322 320 321 319 322 324 325 327 327 328 326 327 327 328 328 329 329 327 329 329 328 328 328 328 328 327 326 325 324 323 324 322 320 319 319 318 316 314
286 287 287 287 286 286 286 285 286 283 283 285 285 283 283 282 283 286 291 289 290 288 288 291 293 293 292 292 294 295 295 296 296 297 298 297 297 299 302 307 309 312 315 317 320 321 322 323 323 324 324 325 325 325 325 324 324 325 323 322 321 321 322 320 320 322 322 322 324 325 325 326 327 327 328 328 328 328 329 329 329 329 328 327 325 326 327 326 324 323 323 322 320 319 319 317 316
285 287 289 288 287 286 286 285 286 281 281 286 285 282 278 282 288 288 287 285 287 289 288 291 291 292 291 292 294 295 296 296 295 296 296 295 295 296 298 303 308 310 313 316 318 320 321 322 323 323 324 324 325 325 324 323 324 325 324 324 324 323 323 324 325 325 326 324 325 324 326 325 326 326 327 328 328 328 329 329 329 329 329 329 326 325 325 325 325 325 323 321 320 317 317 316 316
284 286 289 287 287 287 287 287 285 282 284 285 283 283 278 280 286 290 289 286 288 290 291 290 290 290 291 292 293 294 296 296 296 296 296 295 295 295 296 299 303 308 311 313 315 317 319 320 322 322 323 323 324 325 324 323 324 324 324 324 324 324 324 325 325 324 325 323 324 324 325 324 325 326 326 327 328 328 327 329 329 329 328 327 324 324 324 325 324 321 320 321 320 319 318 318 316
285 287 289 288 288 288 288 287 283 284 283 280 283 284 281 278 282 283 284 288 290 291 291 292 292 292 291 292 293 294 295 295 294 295 296 296 295 295 296 297 299 304 308 311 314 316 317 319 320 321 322 322 323 323 323 323 323 324 324 324 323 323 325 325 321 320 320 320 323 322 323 324 323 323 326 327 327 328 326 328 329 328 326 325 324 324 322 322 322 319 317 317 317 317 318 317 316
287 286 288 288 288 288 288 284 285 283 280 278 282 281 279 282 283 287 284 284 286 287 290 292 293 292 292 293 293 293 292 292 292 293 294 295 295 295 295 295 295 298 304 308 310 312 315 317 318 319 320 321 322 323 322 323 323 322 323 323 323 323 322 318 317 315 318 316 321 319 320 321 320 319 321 324 325 326 326 326 326 326 324 324 322 323 320 319 319 319 319 317 316 315 315 318 317
288 288 287 285 284 284 284 284 283 281 277 279 282 282 283 279 282 286 285 286 289 289 288 290 290 290 290 290 291 292 291 291 291 291 291 292 292 292 292 294 295 296 298 304 308 311 313 315 317 317 319 321 321 322 322 322 323 323 323 323 323 323 322 319 314 314 316 314 319 316 315 318 319 319 320 320 323 324 324 322 324 324 322 317 319 319 319 319 318 317 315 316 316 316 315 314 313
290 284 282 285 284 284 284 282 282 277 276 280 281 281 282 278 280 283 288 287 285 288 289 291 291 292 292 291 290 289 288 289 290 290 292 292 292 292 292 293 294 295 297 300 305 308 310 313 315 316 317 319 320 320 321 322 322 322 323 323 323 324 323 320 318 318 316 315 318 314 314 316 316 317 317 318 318 320 320 321 319 320 318 318 318 318 317 317 316 316 315 314 313 313 313 313 312
285 284 285 281 276 279 277 279 276 278 277 279 278 280 279 281 286 286 287 288 287 285 288 290 291 292 293 291 289 290 290 289 290 292 293 293 294 294 292 293 294 294 296 299 302 306 309 311 313 314 316 317 319 320 320 321 322 322 322 323 323 323 323 321 320 321 318 318 318 316 313 313 314 313 313 315 316 317 318 318 317 317 317 317 316 316 316 315 314 313 313 312 311 311 311 311 309
284 284 281 278 274 272 271 269 269 270 275 278 279 280 279 282 285 287 291 295 295 292 289 290 290 291 292 292 293 293 293 291 291 292 293 294 294 294 293 293 293 294 295 297 299 302 305 308 310 313 315 316 317 317 319 320 321 322 322 323 323 323 322 321 320 321 318 319 318 317 314 315 314 315 314 315 316 316 317 317 317 316 316 315 315 315 315 314 313 311 310 309 309 309 309 309 308
286 283 285 278 271 270 269 269 275 274 277 278 278 277 277 277 285 285 287 290 290 290 290 290 290 290 290 290 289 290 291 292 292 292 293 294 294 293 293 292 292 293 294 295 296 299 301 304 307 309 311 313 314 316 317 318 320 320 321 322 322 323 322 320 320 320 318 317 316 317 316 317 315 316 316 317 313 314 314 314 313 312 312 313 312 312 311 311 310 309 308 307 307 307 308 307 306
284 282 283 279 281 277 273 270 273 270 273 274 274 278 279 284 285 288 287 287 288 289 290 289 291 291 289 289 290 291 292 293 293 293 294 294 293 292 291 291 292 292 292 293 294 296 299 302 304 307 309 311 311 312 315 317 318 319 319 320 321 321 320 320 319 318 317 318 316 317 316 316 317 317 316 313 311 313 312 310 307 306 308 309 310 310 310 309 308 307 306 305 304 305 305 304 302
283 283 282 283 284 281 274 273 274 273 272 273 274 278 281 282 286 289 293 288 289 288 287 287 288 288 287 289 291 292 291 291 292 292 293 293 292 291 291 292 292 292 292 293 294 295 297 299 300 302 304 306 308 310 313 315 316 317 317 319 319 319 318 318 319 317 317 316 317 317 316 315 315 314 311 310 309 310 310 308 305 305 305 306 307 308 308 307 306 305 304 301 299 299 299 298 298
283 279 284 285 284 282 279 273 269 268 271 273 273 278 279 279 280 284 282 286 286 290 292 289 287 286 286 290 291 292 292 291 290 291 291 292 292 292 292 292 292 293 294 294 294 292 293 295 297 299 301 303 304 306 309 311 313 315 316 316 317 318 318 318 319 317 316 315 315 315 313 311 311 310 309 308 309 308 307 304 305 304 304 304 304 305 305 304 303 301 297 296 296 295 293 293 293
286 282 287 286 278 277 278 273 271 267 268 269 271 274 276 281 284 284 284 284 288 290 289 287 288 287 288 289 290 290 288 288 289 290 290 290 291 292 293 293 293 292 292 293 295 295 294 294 294 295 298 299 301 303 305 307 311 314 315 315 316 316 317 318 317 316 315 314 313 312 311 312 309 306 305 306 306 305 305 304 304 302 302 302 301 301 301 300 299 294 293 293 294 294 293 291 290
286 286 285 284 281 277 275 279 273 275 270 267 272 269 279 281 282 285 289 291 291 291 291 291 291 290 289 289 290 289 289 289 288 289 290 291 291 291 292 293 294 294 294 293 294 296 295 295 296 296 296 296 297 300 303 306 308 310 311 312 313 315 315 316 315 314 314 314 313 312 310 308 307 304 306 306 305 304 302 301 300 301 300 299 298 297 298 296 294 293 291 291 291 291 290 289 287
282 284 282 284 281 282 280 278 276 276 266 265 269 272 277 280 284 286 289 290 290 290 292 292 292 290 288 288 289 289 289 289 288 288 289 290 291 290 289 290 289 289 289 289 294 298 298 297 297 297 298 298 300 302 303 305 307 308 309 310 311 312 313 314 314 314 313 313 312 310 310 309 304 304 304 303 302 302 301 300 300 299 300 298 296 294 294 293 292 291 291 290 290 290 288 287 286
286 286 284 286 282 277 279 277 277 271 274 271 266 275 281 283 283 289 289 290 290 290 291 292 289 287 287 288 288 287 289 288 287 288 288 289 289 289 289 289 288 287 290 292 295 298 299 299 299 299 299 300 301 302 304 305 306 308 308 310 310 311 312 312 312 311 311 311 309 308 306 303 303 302 302 302 301 300 300 299 299 299 298 297 295 293 292 293 291 290 289 290 289 288 287 286 287
Wind_Speed
4 3 2 2 4 2 2 7 1 3 3 0 1 0 2 0 1 2 2 2 2 2 2 1 5 5 4 4 5 3 2 7 5 6 3 0 2 9 6 8 11 9 8 3 3 3 3 3 6 9 13 13 13 13 13 13 12 12 11 11 11 12 12 11 12 14 13 12 12 13 14 14 14 14 14 14 14 14 14 14 14 14 14 16 16 17 17 17 17 17 17 16 16 17 18 17 18
2 2 3 1 1 1 0 2 4 3 5 3 2 1 2 2 2 5 8 6 3 2 3 4 5 6 6 6 5 4 3 4 3 2 2 2 8 6 7 10 10 11 6 4 3 2 3 4 6 7 12 12 13 13 12 12 12 11 10 9 11 12 11 12 13 13 13 13 12 12 14 14 14 14 14 14 14 14 13 13 13 13 15 16 16 16 16 16 16 16 16 17 17 17 17 17 17
3 1 0 3 3 5 3 4 2 1 3 1 2 6 2 4 5 5 7 4 3 4 5 4 5 3 2 1 1 2 3 2 1 2 4 8 12 6 9 10 9 9 6 3 3 3 3 4 5 7 9 13 12 11 12 12 11 10 9 8 11 13 13 14 15 14 14 14 12 12 13 13 13 13 13 13 15 14 13 14 13 13 15 15 16 16 15 15 15 16 17 16 17 17 17 17 17
1 5 2 2 2 4 2 4 4 4 1 2 2 3 5 6 7 7 6 2 8 5 1 2 3 2 0 1 1 2 2 0 3 5 7 9 4 8 10 10 9 6 4 3 3 3 4 3 3 7 8 10 12 11 12 12 11 9 6 9 14 12 11 12 12 12 14 12 11 12 12 12 12 13 13 14 14 14 13 13 13 13 13 15 15 15 15 16 16 18 17 17 18 18 17 16 16
1 2 2 3 3 2 2 1 3 2 2 5 2 3 6 6 5 5 2 6 6 3 3 2 3 3 2 2 2 1 1 2 5 1 6 4 6 8 10 10 8 6 5 4 3 4 4 4 4 8 9 9 11 11 12 12 11 9 6 11 13 12 11 11 10 10 11 13 12 11 12 12 13 12 14 13 13 14 13 13 13 12 14 16 15 15 15 15 17 17 17 17 17 17 16 15 15
1 1 4 2 1 2 4 1 1 0 3 6 0 0 6 7 7 7 5 5 3 0 2 1 2 5 1 2 2 1 4 3 5 1 8 7 11 11 11 9 8 7 4 3 4 4 4 4 4 5 10 11 11 11 10 11 12 10 7 8 10 11 9 9 10 12 13 12 12 13 13 13 12 12 12 12 13 13 13 13 12 12 12 14 15 15 14 14 15 15 15 15 16 15 15 14 14
1 2 5 3 3 4 3 2 1 3 1 5 1 1 4 6 5 9 5 2 2 2 3 2 3 3 4 2 1 3 1 1 6 3 5 11 12 11 11 9 8 8 5 3 3 4 5 4 4 6 9 9 12 10 9 12 12 11 8 7 9 9 10 10 12 13 12 11 11 13 12 12 12 12 12 11 12 13 13 13 12 11 11 13 14 15 15 15 15 15 15 15 15 15 14 14 14
2 2 2 1 1 4 2 1 3 5 1 5 1 2 2 7 7 7 9 4 2 2 1 2 2 2 1 2 3 1 2 2 3 6 10 12 13 12 11 10 9 8 6 4 3 3 4 5 5 5 7 11 11 11 11 7 11 11 9 7 6 7 8 8 9 12 11 10 9 11 11 11 12 13 12 11 11 12 12 12 12 12 11 13 14 14 14 14 14 15 15 15 15 14 13 13 13
5 7 1 3 1 4 3 1 3 3 7 3 6 6 4 6 7 9 8 2 1 2 1 6 3 0 3 1 2 2 2 3 2 11 11 13 14 13 9 10 10 8 7 5 2 3 4 4 5 5 7 9 10 11 12 9 7 11 11 8 6 4 13 14 14 12 10 9 8 11 11 11 10 10 11 11 11 10 10 11 11 11 11 12 13 13 13 13 14 14 14 14 14 13 12 12 12
2 1 1 2 3 1 3 3 1 1 2 3 4 1 4 6 6 4 8 1 2 2 3 2 2 0 2 4 1 1 2 1 9 12 11 13 14 12 11 11 10 12 9 7 2 3 2 3 5 7 7 9 9 10 11 10 8 12 12 9 7 5 8 13 13 11 10 10 9 9 10 10 10 10 11 11 11 11 12 12 11 11 10 11 12 12 13 13 13 13 13 14 13 12 11 11 11
1 5 2 3 2 1 2 3 4 5 3 5 7 8 6 6 6 6 2 1 1 4 2 2 1 4 2 2 3 1 3 2 10 14 13 13 13 13 11 10 10 10 10 8 5 2 2 2 5 7 7 7 8 8 10 9 10 10 12 11 9 7 6 9 10 9 9 8 9 10 11 9 10 10 10 10 10 10 10 10 11 11 10 10 11 13 13 13 13 13 13 13 12 12 11 11 10
1 2 1 3 2 4 3 2 4 7 8 3 0 0 5 8 5 4 3 3 2 1 5 5 1 8 4 3 3 2 3 4 10 10 13 12 12 12 11 8 9 8 9 8 6 4 2 1 2 5 7 8 7 8 9 9 10 10 10 11 10 8 7 7 7 9 10 7 9 10 10 10 10 10 10 9 8 10 10 10 11 11 10 10 10 12 12 12 12 12 13 12 12 11 11 11 10
3 1 4 4 1 1 2 0 3 3 6 3 2 1 5 7 7 6 6 2 3 4 3 10 3 1 3 4 3 4 4 8 7 10 11 11 10 10 9 9 9 9 9 8 8 6 3 2 2 3 4 8 7 8 9 9 9 9 9 10 9 7 7 8 6 10 10 10 9 11 12 10 9 9 9 11 11 10 9 8 9 10 10 9 9 9 11 11 11 12 12 12 11 12 12 12 11
3 4 4 2 2 4 4 1 1 1 2 1 3 1 5 3 3 7 8 5 5 5 2 4 5 4 2 1 4 3 5 8 5 8 9 10 9 10 10 9 10 9 9 9 8 7 5 2 2 2 3 4 4 6 7 8 9 10 10 9 8 7 7 8 10 10 9 9 10 11 10 9 10 10 10 10 10 9 9 7 7 9 10 9 9 9 10 10 10 11 11 12 12 12 12 12 11
1 1 5 4 2 1 3 1 1 3 0 0 1 3 2 3 4 5 7 6 7 3 1 1 5 2 4 8 3 6 5 11 7 6 7 9 10 10 10 9 9 9 9 10 8 7 7 3 3 3 3 4 4 3 3 5 9 10 10 9 8 7 9 9 9 10 9 9 10 10 10 10 9 9 9 9 8 9 9 9 9 9 10 10 9 9 9 9 10 10 10 11 12 11 11 11 11
5 4 4 3 2 3 2 2 0 2 1 3 0 1 1 0 1 5 5 2 1 1 1 3 0 2 1 5 1 4 4 11 7 7 7 10 10 9 8 9 9 8 9 9 8 8 7 6 4 4 3 4 4 4 3 3 7 10 10 9 7 8 8 9 9 9 9 9 9 10 10 9 8 7 9 7 8 8 8 7 8 6 8 8 9 8 8 8 8 9 10 11 11 10 10 10 10
2 3 1 4 1 2 3 3 6 1 2 3 4 1 5 2 0 2 0 0 4 2 1 2 4 2 4 3 2 4 3 10 8 9 8 11 8 8 6 7 6 7 6 7 8 8 7 7 6 4 5 3 4 5 5 5 4 8 7 9 8 8 8 8 8 9 8 8 8 8 8 6 5 4 5 4 6 6 6 8 8 9 9 8 7 8 8 7 7 9 10 10 10 9 8 9 9
1 2 4 1 2 3 5 6 9 1 1 1 1 5 3 1 0 0 1 4 3 0 2 3 2 5 4 4 5 3 8 12 11 12 12 12 9 8 8 9 8 8 8 7 7 8 8 8 8 7 5 6 5 5 4 4 5 4 4 4 5 6 6 6 6 4 4 4 6 6 4 4 4 3 4 4 4 5 5 7 7 7 7 8 7 7 7 7 7 9 9 9 9 8 8 4 4
3 2 3 7 5 3 6 4 7 2 1 0 0 1 4 4 6 3 2 1 0 1 3 1 2 4 1 3 4 9 11 12 12 13 16 15 11 12 10 9 9 8 8 7 8 9 8 8 8 8 8 6 6 5 3 4 5 4 4 3 3 5 5 6 5 5 3 4 3 3 3 3 3 3 3 4 4 4 5 6 7 7 7 7 8 8 10 9 9 8 8 8 7 7 5 3 2
1 4 3 3 7 2 5 2 3 4 1 2 2 0 3 2 4 1 2 3 0 8 6 1 4 7 7 3 7 10 12 12 12 13 15 15 12 13 12 12 11 10 9 9 9 8 8 8 9 9 10 8 6 6 5 4 4 3 4 4 3 3 3 4 4 4 4 4 4 3 3 3 3 3 4 5 5 3 4 6 6 6 6 6 6 4 6 7 6 7 6 6 4 2 2 2 2
0 2 4 2 4 2 0 7 3 3 1 0 0 1 1 2 4 2 3 3 6 8 8 10 13 12 9 7 10 11 13 13 12 13 15 13 12 10 11 11 10 10 8 8 6 9 10 9 9 9 9 8 8 6 6 6 5 4 3 3 3 2 2 2 3 3 4 4 4 3 3 3 3 3 3 3 2 3 3 2 2 2 2 2 4 2 2 2 4 3 3 4 2 2 2 2 2
3 1 1 4 2 2 0 4 3 1 1 1 0 0 2 1 1 3 8 7 9 8 7 9 7 5 12 12 13 11 12 14 15 14 16 16 16 14 9 7 6 6 6 7 9 8 9 10 9 8 9 9 9 7 8 6 5 6 6 4 4 3 3 2 2 2 3 3 3 3 3 4 4 4 3 3 2 2 2 2 2 1 1 1 1 2 1 1 1 1 1 2 1 0 1 1 1
2 1 1 2 1 0 1 2 3 2 1 2 1 2 2 2 1 2 6 12 2 3 3 6 8 10 9 9 12 12 13 14 15 18 16 17 16 13 11 9 9 7 7 8 8 8 9 10 10 9 9 9 10 8 6 6 7 6 6 6 5 4 3 4 3 2 2 3 3 3 4 3 4 4 4 4 4 2 2 2 1 1 1 1 1 1 1 0 0 1 1 1 1 1 1 1 1
2 3 1 1 2 1 3 0 4 2 5 3 2 0 1 1 4 1 5 9 4 1 5 7 5 7 12 14 15 17 17 16 18 17 17 18 18 15 12 11 10 7 8 9 8 8 8 10 11 10 10 10 9 8 8 8 7 6 7 5 6 5 5 5 4 4 3 3 3 3 2 3 4 4 4 4 3 3 3 2 1 1 1 1 1 1 1 1 1 0 0 1 1 1 2 2 2
1 1 2 2 1 3 3 2 2 2 7 2 0 1 2 6 2 1 8 9 5 2 3 4 7 9 9 13 16 14 14 14 14 13 9 8 11 10 7 7 8 8 9 9 8 9 10 9 10 10 9 10 8 9 10 8 7 7 7 7 7 6 6 5 6 4 4 4 3 3 3 3 2 3 4 4 4 3 3 3 2 2 1 1 2 2 1 1 1 1 1 1 0 1 1 2 1
4 5 2 1 2 2 2 2 0 2 2 2 1 4 5 5 1 4 12 3 3 3 5 6 7 8 10 12 15 14 15 16 15 13 14 10 9 12 12 11 10 11 11 10 9 10 9 10 10 11 11 10 9 9 9 8 8 8 8 8 7 6 8 7 6 5 5 4 5 5 5 3 3 3 3 3 4 4 3 3 2 3 3 2 2 3 2 1 1 1 1 1 2 2 2 1 1
3 4 4 3 3 1 1 2 2 0 2 3 3 2 0 2 1 7 2 2 1 5 3 3 7 10 10 9 10 11 13 15 17 14 9 8 9 12 12 11 12 12 10 10 9 9 9 9 11 11 10 9 9 10 9 9 8 8 8 8 7 7 7 7 6 6 6 5 5 6 5 4 3 3 3 3 3 3 3 3 3 2 3 3 3 3 2 2 1 2 1 1 2 2 2 1 2
3 4 1 3 5 1 3 1 3 2 2 5 3 1 1 1 1 8 1 2 1 6 4 4 5 8 9 9 9 9 9 9 7 8 14 12 11 12 12 12 12 11 12 12 10 8 8 10 11 11 11 9 9 10 8 9 9 9 8 8 8 7 7 7 6 6 7 6 6 6 6 5 4 3 4 4 4 3 3 3 3 3 5 4 3 3 3 3 3 2 2 2 2 2 3 3 2
2 3 2 3 4 5 2 5 1 3 3 6 3 0 1 0 5 7 1 1 3 6 5 5 6 5 5 5 6 7 10 7 7 9 14 15 12 11 14 13 11 12 10 12 11 10 11 10 12 12 12 10 12 11 9 9 8 8 8 8 7 7 7 7 6 7 7 6 6 7 7 6 5 5 4 4 4 3 3 3 3 4 4 3 3 4 4 3 2 2 3 2 3 2 3 4 2
3 3 3 2 2 4 8 3 1 2 2 5 0 6 5 9 13 3 1 3 3 3 4 6 5 6 5 5 7 8 5 6 10 13 13 11 10 11 14 12 12 12 10 8 10 12 9 7 8 9 11 13 12 11 9 8 8 7 7 7 7 8 7 7 7 7 7 6 7 8 7 7 5 5 5 4 4 3 3 3 4 4 4 3 3 4 4 3 3 3 4 2 3 3 4 4 2
4 1 2 2 0 5 4 2 6 5 2 3 1 5 6 7 10 7 3 5 6 6 7 7 6 6 6 7 7 8 9 10 13 12 9 9 10 9 11 10 12 12 8 9 12 12 11 10 8 8 9 13 11 12 11 11 10 9 9 8 7 8 7 7 7 7 6 7 7 8 8 8 7 6 6 5 5 4 4 4 4 5 3 4 3 3 3 3 3 4 1 3 3 3 3 3 3
1 3 5 1 6 4 4 1 6 8 0 3 3 5 8 10 10 2 0 2 2 7 7 7 7 7 7 7 8 9 10 9 9 8 9 10 10 10 11 13 12 12 13 12 11 10 13 12 10 10 11 13 13 12 12 11 10 10 9 8 7 8 7 8 7 8 7 7 8 8 8 8 8 7 6 6 5 5 5 5 5 4 4 3 3 3 3 3 3 3 3 3 3 4 3 4 1
1 5 3 3 2 3 4 0 3 5 3 1 8 6 3 3 2 2 2 4 2 4 7 7 7 7 7 7 8 8 7 8 8 10 11 11 11 11 11 11 12 13 13 12 12 11 12 13 11 11 13 13 13 12 12 13 11 11 11 9 9 9 9 9 8 8 7 8 8 9 8 8 8 9 7 7 6 5 5 5 5 5 4 4 4 4 4 4 3 3 3 3 3 4 3 5 3
5 3 4 1 4 2 3 4 1 1 1 3 4 5 6 9 8 3 3 3 3 5 8 6 6 7 7 6 7 8 8 8 11 12 15 14 12 12 10 9 11 11 11 12 13 13 15 13 13 13 12 11 11 12 12 12 11 10 9 8 8 10 12 10 8 8 8 8 8 8 9 9 8 9 8 7 6 6 5 5 5 5 4 4 4 5 5 3 4 4 4 4 4 4 4 4 5
9 6 4 1 1 3 3 2 2 1 1 3 1 3 7 10 13 10 4 3 4 7 7 7 6 7 7 7 8 9 9 10 14 14 14 12 11 10 10 10 10 10 10 12 11 12 11 11 11 11 12 12 11 12 10 11 10 8 8 8 9 10 9 10 8 10 9 7 8 8 9 9 7 8 7 7 6 6 6 5 5 6 6 5 4 4 3 3 4 3 5 4 2 3 4 4 3
6 9 6 5 6 3 4 4 1 2 1 3 4 7 5 9 11 13 4 5 5 7 3 6 7 7 7 8 8 8 10 13 14 9 7 8 9 10 10 9 9 9 9 10 11 11 12 11 10 10 13 13 11 10 9 9 8 9 9 8 8 9 9 8 8 8 7 8 7 8 8 8 7 7 8 8 7 6 6 6 7 7 5 5 5 5 5 5 6 6 6 6 4 3 3 3 2
7 6 6 5 5 2 3 3 2 2 1 5 7 7 7 9 11 11 9 1 4 7 7 7 7 7 7 8 9 10 10 16 6 6 9 9 10 10 9 9 9 9 9 9 11 12 12 12 11 13 13 12 11 10 10 9 9 10 9 11 10 9 9 8 8 8 8 8 8 8 8 8 8 9 8 7 7 7 6 7 7 6 6 6 6 7 7 6 6 6 4 3 5 4 3 2 2
10 8 7 4 4 7 4 1 1 3 3 2 0 2 6 10 10 11 11 2 9 9 9 8 9 9 8 8 10 11 14 5 6 8 7 7 10 10 9 9 10 12 12 13 14 15 14 13 13 14 11 12 14 14 11 10 10 10 9 9 8 8 8 8 9 8 8 7 8 8 8 8 9 9 8 9 8 7 7 6 7 6 6 7 7 7 6 6 5 5 3 2 2 4 3 3 3
3 7 6 5 3 2 5 2 1 1 2 6 1 3 8 9 9 10 10 9 8 8 9 10 9 9 8 8 10 12 7 11 6 11 7 9 10 11 10 11 11 14 14 15 16 13 12 13 14 14 13 13 13 12 11 12 11 10 11 9 10 7 7 8 8 8 8 9 10 10 10 9 10 10 9 9 8 8 8 8 7 7 7 7 6 7 7 6 6 5 5 4 2 2 3 1 3
6 6 7 7 4 5 3 2 2 2 0 3 2 5 10 9 8 12 13 8 8 10 9 11 8 10 11 13 11 8 9 11 13 13 11 9 10 10 9 10 13 12 13 12 12 14 12 13 14 15 14 13 12 13 13 13 12 11 11 10 9 10 8 8 9 8 9 10 10 10 9 9 9 9 10 9 8 8 9 9 8 7 7 7 7 7 6 7 5 4 5 6 5 5 3 2 3
1 5 4 5 3 3 4 2 2 0 3 2 4 5 7 4 8 7 6 2 5 9 6 8 9 9 11 6 5 8 12 11 12 12 10 8 9 12 14 14 10 12 13 14 14 14 12 17 17 16 14 13 12 13 14 12 9 8 7 4 3 3 1 4 5 7 9 9 9 8 8 8 9 9 9 9 9 9 9 9 8 8 7 7 7 7 7 7 7 6 7 6 7 6 4 3 0
2 4 8 7 6 4 2 3 5 5 2 3 5 5 6 5 5 8 10 5 4 3 3 9 11 9 8 10 13 12 10 11 12 15 12 8 10 10 9 9 11 13 13 14 15 16 16 15 14 13 12 12 13 14 14 11 11 11 10 10 10 8 9 8 11 12 9 8 8 5 6 9 9 9 9 9 9 9 9 9 9 7 8 6 6 7 7 6 5 7 8 7 7 7 5 3 3
6 7 6 6 7 6 5 3 3 1 2 1 1 3 8 5 10 8 6 6 10 7 6 11 10 10 7 10 11 12 11 12 11 12 10 6 8 7 9 11 14 13 15 12 11 13 13 12 11 13 13 12 13 13 13 12 12 12 14 14 13 13 12 10 9 8 8 7 7 8 9 8 9 10 9 9 9 9 9 8 8 8 8 7 7 6 6 7 6 7 5 6 6 5 4 4 5
5 2 8 5 7 6 4 4 4 2 1 2 2 3 3 9 9 7 5 5 11 11 10 8 10 11 11 11 12 12 11 11 9 10 10 9 9 10 13 13 10 14 11 7 11 10 12 14 13 14 12 12 11 11 13 13 14 13 13 13 13 13 14 13 10 9 8 7 8 9 8 8 9 9 9 9 9 9 9 8 8 7 8 7 6 6 7 6 4 4 5 5 5 6 6 6 5
4 4 10 8 8 5 5 5 3 1 1 6 1 0 3 7 8 2 1 11 12 12 9 11 9 10 11 11 11 12 12 8 6 8 11 10 10 11 11 9 10 9 8 11 12 12 11 11 11 11 12 12 11 13 13 14 13 13 13 12 13 11 11 9 6 7 8 8 9 8 8 8 8 8 8 9 9 9 8 7 8 7 7 6 7 6 5 5 6 6 6 4 5 5 5 4 5
4 3 4 4 5 4 3 3 2 0 1 5 2 2 3 13 6 7 1 4 9 7 9 11 11 10 9 10 9 6 5 6 7 9 10 9 8 8 8 8 8 11 9 8 7 6 9 9 12 13 14 12 12 13 14 14 14 12 13 13 15 12 9 6 6 7 8 8 9 9 8 7 7 6 7 7 7 8 8 8 7 8 6 6 6 7 7 6 6 6 6 6 6 6 5 5 5
5 8 6 5 6 3 3 4 1 2 5 6 6 7 3 9 2 8 5 8 10 8 6 7 8 7 9 9 9 7 7 6 6 7 8 9 6 6 5 9 10 6 6 7 9 9 9 10 12 13 16 12 12 13 14 15 14 14 14 14 15 14 12 10 8 7 7 8 9 9 8 8 7 8 7 7 7 7 7 7 7 7 6 6 5 7 7 6 6 6 6 7 7 8 6 6 6
8 3 5 7 4 3 3 2 3 1 6 1 2 4 7 9 4 6 5 5 5 5 7 8 8 8 8 6 5 5 6 6 6 7 9 7 8 6 5 9 9 8 5 8 9 8 9 10 10 13 12 13 12 12 13 14 13 13 14 14 14 13 12 10 12 12 11 12 10 9 8 7 8 7 6 6 6 6 6 6 6 7 6 7 7 6 6 5 6 7 7 6 6 5 5 7 6
3 7 8 9 3 3 2 1 4 9 5 0 2 4 1 17 6 7 6 8 7 7 8 9 10 9 8 3 4 7 6 6 7 8 8 7 7 7 5 7 6 7 8 8 8 8 8 8 11 12 14 12 11 11 13 13 13 13 13 13 13 11 11 12 12 12 11 11 9 9 8 9 7 6 6 7 6 7 7 6 6 7 7 6 6 6 7 8 7 5 7 8 7 7 6 7 6
5 8 9 8 6 3 5 2 1 5 5 4 1 0 7 3 7 10 14 16 12 8 8 8 6 9 10 9 7 8 9 7 9 8 8 8 7 6 6 6 6 6 7 7 6 6 6 7 8 11 12 8 8 9 11 11 13 13 11 12 11 10 11 11 10 11 10 10 9 10 12 12 10 11 9 9 8 8 7 8 8 7 7 8 9 8 7 8 7 7 7 6 7 6 6 7 7
10 3 7 5 5 6 5 5 9 7 6 1 3 1 7 2 3 1 8 9 8 8 8 7 8 8 8 6 8 11 12 12 8 8 8 7 6 6 7 6 6 6 7 7 6 6 5 6 7 9 8 7 8 9 9 11 11 11 10 10 11 10 10 9 10 9 9 10 9 10 10 9 9 9 9 8 6 8 7 7 8 9 7 8 8 8 7 6 7 5 5 7 6 5 7 7 6
1 3 4 3 7 5 4 5 3 2 1 0 2 7 4 5 3 9 5 7 9 8 9 6 10 10 4 5 8 10 10 10 7 6 7 7 6 6 6 6 6 5 5 5 6 6 7 8 7 8 9 8 7 7 9 10 10 9 9 11 11 10 9 8 7 7 8 9 10 10 10 10 9 8 6 7 7 8 8 8 7 7 7 7 8 9 9 7 6 7 6 6 7 4 7 8 7
5 6 8 5 2 7 5 2 1 1 4 7 2 8 7 7 7 9 14 6 9 6 6 6 8 8 6 8 10 8 6 7 7 8 7 6 5 6 6 6 5 5 4 5 5 5 7 6 7 8 7 5 7 8 9 9 9 9 10 10 9 9 9 10 9 10 10 9 9 9 9 9 7 7 7 7 9 7 8 8 9 8 7 7 7 8 8 7 7 7 7 8 8 5 8 8 6
8 6 8 2 2 4 4 3 1 1 3 6 2 10 5 1 10 4 2 3 6 9 13 6 6 5 6 9 8 9 8 6 6 7 8 7 6 6 6 5 5 5 4 3 4 4 4 5 6 7 7 8 8 7 8 8 9 10 9 9 9 10 9 10 9 9 9 8 7 7 6 6 8 8 8 8 9 9 8 9 9 7 7 7 8 8 8 8 8 7 8 8 7 9 8 5 5
7 6 6 9 5 4 2 4 2 1 2 4 4 3 7 9 9 3 4 5 9 10 8 7 6 5 7 8 9 8 5 5 6 6 7 6 6 6 6 5 3 4 4 4 2 3 3 4 5 6 8 8 7 6 5 5 6 7 7 8 8 8 8 8 7 8 9 9 9 8 9 9 7 7 8 8 9 9 9 8 8 8 8 8 8 8 8 7 8 10 9 8 6 8 7 7 6
1 3 4 1 3 2 5 7 3 5 4 1 7 3 8 7 7 9 13 12 13 12 12 9 9 8 7 7 7 7 7 6 6 6 6 6 6 6 6 5 4 3 3 3 3 3 3 3 4 5 4 4 4 6 7 8 7 6 5 5 6 7 7 8 8 9 9 10 10 10 9 8 10 9 9 10 10 11 10 10 7 9 9 9 9 7 7 8 10 10 9 8 8 8 8 7 7
4 5 6 1 0 1 5 0 5 4 4 5 2 6 7 6 8 10 12 12 12 11 12 11 8 4 4 6 7 6 7 6 5 5 5 6 6 6 5 4 3 2 2 2 3 5 4 4 4 5 6 5 6 6 6 7 7 7 7 8 8 8 8 8 9 9 10 10 10 10 10 10 9 9 10 10 10 10 11 11 10 9 11 10 10 9 8 10 10 9 8 8 8 9 9 6 8
9 11 14 15 12 7 8 8 3 1 2 4 3 10 7 6 3 10 10 11 10 11 12 11 6 4 4 5 6 5 6 6 5 5 4 5 6 7 5 3 2 2 3 3 3 4 4 4 4 4 4 4 5 6 6 6 5 5 7 7 8 7 8 8 9 9 10 9 9 9 8 8 10 9 10 11 11 10 10 11 11 10 9 9 10 10 10 10 10 9 8 7 8 9 8 8 8
Wind_Direction
335 24 111 119 70 102 59 3 177 331 56 111 327 117 166 47 222 100 202 23 148 243 194 46 143 159 184 198 204 167 303 138 193 143 204 237 140 149 145 141 137 136 140 138 134 130 141 147 107 113 118 110 105 100 96 93 91 90 96 100 102 95 93 95 98 102 94 93 96 91 87 91 86 85 85 88 90 88 86 85 86 85 90 84 79 78 81 85 85 85 83 80 78 77 79 80 78
325 60 63 13 58 44 324 139 96 348 39 78 225 102 251 274 81 214 170 190 202 171 178 120 92 99 80 73 119 160 85 9 185 106 93 117 126 128 147 144 143 144 136 133 114 101 109 105 106 121 122 109 104 102 98 96 94 96 103 108 103 99 100 95 99 102 99 95 90 94 92 91 90 84 86 87 88 90 91 89 91 96 86 82 79 80 84 90 91 88 86 86 84 82 79 78 76
331 28 64 35 40 69 105 31 287 41 74 24 271 209 356 147 201 210 197 213 187 144 129 107 128 49 352 93 58 40 206 33 208 213 114 137 136 167 149 147 145 140 133 118 109 111 104 110 124 128 135 120 109 107 107 101 97 95 98 108 110 108 106 107 102 96 93 92 97 94 89 93 96 96 94 96 91 84 85 95 97 92 86 84 83 85 84 85 88 88 81 82 85 82 78 77 76
29 16 160 63 280 39 47 23 87 123 99 207 301 281 191 181 221 194 219 229 144 126 215 100 141 241 111 343 234 109 62 276 205 141 131 159 145 145 149 146 134 129 108 109 115 112 116 111 107 125 120 129 116 117 112 108 108 107 108 111 99 99 99 93 100 100 96 92 87 89 92 86 84 94 98 92 94 99 100 93 97 93 84 88 87 83 85 85 90 86 85 82 79 78 78 77 76
324 352 63 100 105 6 101 94 128 107 27 196 70 247 229 204 193 193 193 190 164 120 93 167 82 345 143 100 130 156 204 93 182 271 139 125 120 140 146 138 135 131 121 120 122 120 113 111 101 117 132 131 127 123 121 117 110 106 98 112 111 106 100 97 97 101 96 96 98 97 97 101 100 92 81 87 91 93 90 91 90 96 98 91 89 88 86 86 84 87 85 82 81 79 78 78 77
35 42 8 74 50 167 69 54 37 75 219 152 143 250 219 200 167 191 145 181 218 289 79 65 159 200 71 331 189 77 171 154 187 202 154 141 137 144 143 133 136 138 122 118 124 122 122 110 123 157 144 138 131 130 133 125 114 110 110 110 108 108 107 108 107 100 103 107 101 91 94 95 94 90 89 85 82 83 88 91 96 97 85 80 84 84 85 86 86 86 86 85 83 80 79 79 78
260 43 3 42 46 49 163 143 239 203 275 165 195 237 218 202 199 136 132 117 268 259 151 219 114 97 87 287 12 255 162 199 164 198 164 141 135 139 137 145 135 135 131 125 128 129 134 137 142 101 122 134 130 132 129 124 122 118 117 107 108 113 117 121 110 109 105 101 103 107 106 105 103 97 96 97 95 93 91 88 85 85 89 91 88 88 88 86 85 86 86 83 83 83 82 81 80
60 153 331 113 323 39 51 132 244 186 348 186 258 249 236 205 161 160 161 128 236 188 186 263 78 111 258 359 173 233 354 156 287 132 132 143 139 138 147 147 146 140 138 138 136 146 143 146 118 90 136 134 129 134 137 128 127 123 120 110 87 104 116 115 111 99 100 99 100 99 95 94 100 102 98 98 98 98 96 99 100 98 101 93 88 86 81 79 83 81 83 83 83 84 83 82 82
8 81 235 71 48 39 63 312 274 252 289 286 271 226 300 187 162 142 160 227 338 255 247 175 169 112 219 46 189 294 317 326 213 135 151 146 148 148 150 152 150 147 146 146 158 150 146 137 123 100 120 131 133 139 140 124 119 128 120 114 108 92 101 95 98 101 98 99 102 101 103 98 97 97 98 93 92 93 94 93 94 91 92 96 88 86 85 84 83 83 81 83 83 83 83 81 81
42 31 262 114 128 293 2 298 50 196 241 230 242 244 189 171 136 130 149 144 207 100 202 20 145 83 107 160 327 329 74 324 150 142 162 155 150 150 152 155 151 150 152 158 168 150 150 141 121 102 106 132 134 139 140 121 121 132 127 124 117 96 105 110 111 118 118 109 112 112 106 104 101 101 101 103 103 99 96 95 95 95 95 99 94 87 85 84 84 86 84 83 85 84 84 83 80
353 20 118 87 31 71 236 262 255 312 263 320 278 233 209 155 130 136 135 171 50 152 168 187 44 138 114 273 253 280 292 225 160 163 163 158 152 153 151 153 152 153 156 160 159 149 140 143 122 101 100 112 130 134 137 123 114 127 134 132 129 127 117 122 124 120 107 112 124 119 109 111 105 96 93 92 90 91 92 91 92 92 93 97 101 94 89 85 82 83 85 84 84 81 80 80 78
304 27 15 97 162 162 226 184 280 284 295 328 292 247 196 155 121 129 162 145 195 130 172 155 236 138 71 329 282 307 351 195 176 167 165 159 156 154 148 144 153 153 156 158 153 142 119 111 86 101 95 103 116 128 131 126 127 130 126 133 134 129 126 108 107 107 94 109 132 112 116 111 104 97 92 87 85 90 92 95 96 97 96 97 102 98 93 88 85 83 84 82 79 78 75 75 75
109 86 84 97 186 149 152 103 253 296 321 294 167 215 138 141 184 168 148 102 132 124 267 203 139 105 163 196 273 308 163 207 189 172 166 163 158 148 144 146 152 152 155 155 159 160 135 119 67 74 92 93 99 116 132 132 133 133 128 126 126 124 113 116 104 96 97 84 95 108 101 95 97 102 91 64 58 60 74 86 90 96 100 101 101 101 93 87 85 82 78 79 76 73 70 67 67
119 184 136 157 22 116 146 224 331 358 301 274 278 300 179 144 233 164 129 138 204 172 249 157 146 141 104 333 281 277 210 182 205 170 167 162 155 150 150 148 148 152 157 159 162 167 169 141 113 104 95 89 96 106 124 140 134 127 122 116 117 122 117 100 96 97 97 96 96 100 101 99 96 90 81 74 68 59 48 60 94 103 102 103 99 91 88 86 84 79 75 73 74 69 64 61 58
107 173 82 108 76 112 247 106 214 141 259 116 25 128 232 295 117 129 163 159 238 204 24 140 178 124 228 163 264 212 198 173 176 151 156 153 157 154 152 148 151 154 159 164 166 173 176 164 157 137 114 112 102 93 76 128 128 126 123 123 124 107 100 111 110 109 107 105 103 102 103 102 97 94 91 84 78 65 57 55 55 76 96 96 95 90 89 86 81 73 71 69 67 65 60 55 53
131 93 77 118 167 157 216 149 201 83 268 176 14 159 234 312 199 119 244 155 147 357 167 182 51 231 154 151 242 247 201 159 160 142 149 156 159 155 148 151 155 157 161 165 171 176 182 185 167 158 155 142 131 124 123 103 127 127 127 127 126 110 111 111 115 109 110 109 107 109 108 104 100 97 95 89 82 74 68 59 54 77 101 103 101 102 96 88 83 73 69 66 64 62 59 54 49
80 78 56 40 198 191 208 167 152 222 252 270 279 158 172 215 248 257 302 22 124 173 343 265 178 29 187 206 233 281 213 140 142 147 154 165 163 161 153 151 156 161 166 171 176 176 190 190 187 169 173 158 146 140 133 126 118 128 130 135 129 117 116 113 109 108 108 109 111 110 109 109 110 109 104 102 93 90 80 73 73 66 64 77 94 95 97 84 79 74 65 60 58 59 64 64 54
57 97 106 260 201 156 199 177 189 168 92 296 125 189 130 253 330 221 86 34 58 21 227 295 300 250 241 278 289 237 150 143 153 159 170 169 173 166 169 167 163 176 174 175 186 178 189 189 193 194 187 178 166 155 148 142 135 121 134 134 135 124 117 114 111 110 109 108 113 115 112 119 120 121 119 114 109 106 96 90 83 77 70 65 69 92 89 72 76 64 56 53 50 49 47 54 44
88 120 119 226 171 237 165 202 185 122 294 213 287 281 180 219 147 207 144 270 107 175 257 352 297 287 295 285 236 135 149 147 161 173 177 179 181 179 176 174 176 172 185 183 189 186 189 189 191 195 197 184 174 163 151 146 146 146 150 148 129 133 134 124 123 117 122 119 114 112 121 126 129 129 131 129 123 114 106 103 93 86 80 74 72 62 65 66 62 63 60 55 49 47 47 41 35
211 125 194 242 208 240 223 172 194 217 104 323 345 22 158 245 164 100 217 164 79 210 206 263 234 229 201 159 146 151 155 155 168 183 186 189 189 184 183 183 185 184 184 185 184 186 189 193 194 194 198 190 182 179 173 162 160 153 156 161 153 149 132 135 131 132 138 136 134 129 126 117 121 121 113 107 111 115 98 79 78 78 73 64 61 68 58 57 58 54 51 50 48 40 45 41 31
232 100 177 216 173 123 301 187 258 241 154 272 30 167 173 252 214 153 183 133 237 245 223 185 206 209 184 177 160 160 162 162 172 191 195 197 195 194 194 191 189 184 182 176 177 187 192 192 190 193 196 198 194 187 187 191 170 164 164 170 161 174 149 143 146 145 142 145 141 140 134 133 135 134 134 135 126 126 116 100 82 73 56 61 38 70 30 36 33 28 14 38 38 29 36 32 10
108 179 173 141 174 85 223 201 197 138 144 113 201 260 247 77 98 151 159 191 229 213 224 224 229 180 161 170 172 166 169 170 179 190 200 200 197 196 196 194 180 167 157 179 191 187 191 193 190 188 194 198 198 193 196 193 173 193 189 180 183 184 190 166 163 162 155 153 147 141 127 138 138 144 148 144 132 136 128 128 104 76 97 88 46 78 75 42 51 37 40 39 17 330 43 53 44
175 355 23 213 207 108 198 183 227 133 92 162 185 229 70 179 231 195 176 219 227 230 237 225 209 170 174 147 153 168 175 181 186 195 198 201 202 201 199 195 185 170 163 192 192 193 191 194 193 190 193 193 196 196 194 195 196 201 202 203 195 198 192 188 191 180 177 160 158 150 151 151 154 159 159 159 155 145 148 141 139 117 122 136 122 145 127 89 71 57 22 15 342 338 348 12 359
99 165 148 117 178 193 166 224 121 210 142 223 220 31 196 117 231 104 202 237 171 315 258 242 188 146 145 154 172 174 184 184 193 199 198 201 199 200 196 196 193 176 173 188 193 195 190 196 195 194 194 192 193 194 194 195 198 195 202 195 203 194 189 206 205 201 186 184 171 167 161 164 162 167 171 168 166 159 170 164 154 155 135 171 171 184 170 167 167 160 349 298 324 341 319 341 338
209 270 200 193 170 237 272 262 238 211 246 326 68 211 240 186 184 73 245 239 235 297 81 102 117 138 156 163 178 186 189 195 198 200 202 208 202 198 198 199 198 192 190 188 191 196 198 194 194 196 194 194 193 194 197 196 196 194 194 200 205 193 201 206 207 205 203 196 183 167 173 169 176 164 174 179 164 182 185 185 184 191 205 203 202 215 197 147 188 224 248 284 303 302 305 310 329
195 217 179 151 226 263 286 16 97 206 279 187 124 259 283 256 230 250 247 220 233 138 76 105 123 143 171 183 185 182 188 193 194 192 201 196 193 198 204 202 203 206 205 194 190 197 198 192 196 200 199 196 196 194 198 195 193 195 198 200 200 193 208 210 203 208 212 201 200 193 189 179 176 180 167 175 177 197 200 196 203 209 209 215 214 229 220 217 218 196 239 250 283 281 289 297 304
182 187 199 237 267 358 18 54 293 164 237 208 191 283 325 342 106 276 357 276 346 109 85 148 153 174 188 188 192 198 189 193 193 194 181 193 200 204 205 201 205 208 200 201 196 198 195 190 200 202 203 197 195 198 197 199 195 199 199 198 194 199 200 199 206 212 210 211 206 194 190 185 170 177 178 174 185 187 197 204 217 220 233 221 217 232 215 218 223 235 243 275 282 286 280 282 285
129 145 105 275 294 250 234 330 334 52 295 176 202 255 295 297 93 240 262 348 168 143 160 174 200 192 192 196 196 201 206 207 185 169 194 190 200 203 202 203 204 202 201 205 202 192 188 197 198 201 204 197 196 204 200 202 200 202 196 196 199 199 194 199 203 207 213 213 206 201 198 193 178 176 184 182 188 189 196 205 217 220 231 230 221 227 221 216 222 235 245 248 250 256 274 267 239
128 132 207 293 329 281 231 228 158 81 293 161 179 11 303 172 223 237 231 312 129 149 174 210 216 225 217 212 206 202 211 191 179 197 206 204 201 199 207 206 203 205 208 204 201 195 198 193 203 203 201 202 199 206 205 206 205 202 198 201 202 195 197 201 202 206 207 210 208 204 202 191 183 183 191 188 188 196 194 201 214 227 228 210 214 221 220 217 215 221 245 220 241 245 265 262 236
100 58 144 304 6 295 245 138 102 108 262 139 40 263 262 239 239 238 265 120 103 124 200 213 222 219 224 208 211 221 209 183 203 211 209 205 198 201 209 204 205 209 206 203 199 207 201 200 200 206 202 207 202 208 206 207 207 205 203 203 202 199 203 203 208 209 206 207 208 206 201 195 185 187 179 189 192 192 197 206 214 229 222 208 210 212 221 215 229 209 212 186 232 226 243 256 249
161 218 77 213 139 264 306 232 152 210 147 140 109 248 278 288 271 262 218 166 155 204 226 216 220 225 220 209 212 218 222 212 215 218 214 208 207 207 209 205 205 208 205 208 209 206 202 204 197 210 202 208 202 207 207 209 208 208 205 206 202 203 204 205 208 210 207 209 206 209 202 197 192 185 187 180 194 190 196 207 216 230 202 193 196 202 217 218 217 236 244 225 212 221 239 261 251
112 98 244 280 180 267 297 101 159 195 193 146 127 269 248 259 271 320 3 234 198 222 229 228 222 220 216 210 214 222 224 223 239 239 222 218 208 208 202 204 201 202 208 209 210 205 210 207 203 209 207 208 208 206 209 209 207 210 209 205 204 201 205 207 208 206 206 209 207 209 203 199 196 195 183 184 184 192 196 203 217 223 199 193 209 193 203 220 222 251 244 252 256 242 213 252 182
351 174 261 222 154 249 337 258 319 304 135 162 175 233 328 301 244 323 322 152 170 250 259 247 240 241 232 226 222 224 234 237 236 231 227 218 216 211 207 203 199 202 205 206 208 207 213 209 206 209 213 211 210 207 209 212 212 212 212 205 205 205 210 211 210 209 210 209 208 210 203 197 198 197 192 186 191 189 197 204 217 211 193 195 191 187 198 210 214 222 232 212 233 262 248 275 275
242 210 196 188 152 196 194 313 8 340 265 210 188 202 231 272 275 249 328 150 151 218 252 267 264 246 240 248 246 237 233 231 233 226 225 217 217 211 208 201 201 199 203 204 205 207 212 208 210 209 212 210 210 207 205 210 210 206 208 206 203 209 214 213 208 205 208 206 202 210 205 198 198 197 192 188 195 196 197 204 215 201 186 198 201 184 198 188 203 203 235 211 201 206 244 253 279
190 162 164 184 66 161 179 166 204 92 38 212 330 228 254 267 281 271 203 190 165 217 228 245 251 244 240 233 238 237 235 233 238 228 225 221 220 212 209 203 200 199 202 202 201 203 206 207 207 208 209 209 209 208 207 208 207 206 205 207 205 210 213 216 210 209 209 201 204 206 206 202 195 192 188 183 193 195 200 207 212 200 183 190 196 215 188 179 189 203 223 232 180 222 242 249 267
159 169 162 131 151 205 184 240 272 180 218 216 228 239 239 252 270 276 250 196 200 236 259 264 250 250 244 234 239 238 233 240 243 238 232 218 216 211 210 206 206 202 202 199 203 204 208 207 206 205 209 209 205 206 203 204 198 199 201 202 211 208 212 212 207 211 204 205 201 201 204 205 197 193 189 189 193 193 198 199 205 200 187 186 190 192 186 186 196 196 221 226 232 254 237 254 236
127 121 128 171 162 254 278 259 232 225 41 231 227 225 224 255 260 267 277 114 266 276 261 251 253 246 242 238 235 238 236 235 251 229 223 214 212 209 208 202 207 204 204 199 204 209 208 208 200 209 210 205 202 205 204 195 198 202 208 206 207 210 208 207 204 204 204 204 200 200 206 207 201 200 199 190 194 198 200 204 204 197 187 188 184 204 202 203 199 188 201 193 207 225 246 199 207
137 138 143 171 175 205 230 196 335 305 147 292 26 317 256 246 259 263 271 236 262 253 256 255 254 243 242 238 245 238 239 278 269 260 233 216 214 208 201 203 197 200 208 202 208 209 207 204 206 214 208 203 207 206 201 204 205 205 197 208 207 210 205 201 208 204 202 198 195 198 207 206 204 203 197 198 197 191 201 204 201 200 191 203 202 201 200 203 198 196 151 191 207 227 257 180 167
95 140 148 120 230 235 280 278 313 304 95 260 13 280 271 265 264 273 265 254 253 251 231 243 239 253 245 237 242 248 254 258 263 255 231 217 214 209 203 206 207 210 207 207 212 208 206 208 213 215 211 204 209 204 201 208 208 207 205 208 203 211 207 205 207 199 194 202 200 201 206 204 206 208 199 197 200 201 203 198 201 200 196 197 206 217 211 210 206 193 176 209 201 219 260 237 164
123 112 142 187 200 142 236 263 5 338 173 282 343 326 283 274 263 258 263 237 239 248 241 246 235 240 244 236 231 238 244 246 249 248 236 217 210 210 207 208 210 206 212 213 208 209 209 213 213 213 212 207 208 206 206 209 205 204 209 210 206 206 207 202 206 203 203 205 207 204 203 198 202 207 202 197 201 202 201 202 196 194 200 197 201 218 213 223 198 199 203 211 210 240 204 257 199
295 150 150 167 171 218 148 200 306 290 24 53 326 288 283 249 252 266 274 307 268 265 279 269 262 238 250 283 303 230 236 232 242 256 248 214 207 211 206 209 199 205 211 209 204 206 208 211 211 208 209 206 206 203 205 202 194 196 200 192 178 206 72 187 199 210 209 206 207 198 197 189 199 206 205 200 199 203 202 202 200 202 201 199 191 207 212 214 213 196 194 201 192 202 224 200 151
193 246 181 176 163 129 52 16 55 18 335 7 50 335 275 304 289 257 268 307 282 270 285 257 254 245 241 250 251 252 242 238 232 240 241 217 215 220 216 207 203 212 213 213 206 209 209 212 208 207 210 210 209 206 199 191 197 195 188 192 199 195 205 193 198 202 189 196 202 186 182 189 198 204 203 204 203 200 201 204 202 190 200 206 203 207 210 205 208 216 213 205 203 201 195 161 190
152 242 167 156 140 122 110 65 74 80 188 263 49 195 277 311 294 271 273 297 278 281 257 266 264 262 240 235 243 249 240 244 238 251 256 234 232 222 223 214 212 211 220 210 208 216 214 215 207 205 208 210 208 204 193 192 200 201 200 202 203 205 210 215 211 208 205 200 186 186 193 192 195 199 203 202 203 205 209 202 197 202 195 190 195 199 211 213 215 215 196 194 197 172 169 169 200
211 236 152 130 122 139 158 109 114 209 288 327 39 125 244 294 252 240 250 254 271 285 281 256 259 259 249 237 237 241 245 238 241 245 251 235 231 216 224 221 217 221 220 187 213 212 208 210 205 206 209 210 207 200 195 196 201 202 202 205 206 210 210 215 199 201 193 177 187 190 187 193 196 198 199 202 204 204 207 201 198 201 207 202 178 191 200 205 200 173 184 187 158 163 171 192 188
216 201 160 165 156 163 126 107 145 203 60 292 310 38 311 226 274 278 206 258 260 261 268 277 260 249 253 249 240 237 241 246 230 248 251 241 230 227 232 233 226 233 219 210 213 208 208 207 206 207 211 209 207 199 199 201 204 201 203 205 210 215 211 211 181 181 184 180 190 190 191 191 194 200 201 198 202 203 204 206 199 201 198 181 173 180 188 168 179 164 142 139 166 158 169 173 136
273 126 50 72 78 63 109 104 118 299 85 258 196 152 230 273 232 247 323 214 254 251 255 254 256 250 250 258 259 255 274 266 242 241 254 256 243 238 229 239 235 224 221 223 227 210 207 201 203 204 212 207 204 201 201 202 203 202 206 209 212 211 202 188 165 170 182 177 190 189 193 190 191 190 199 205 201 202 198 199 195 189 192 183 171 163 160 165 166 159 155 153 157 151 155 153 144
120 99 85 49 42 58 35 69 94 45 269 238 201 199 160 293 172 208 187 222 202 224 265 266 265 263 263 253 259 268 265 266 263 261 262 262 264 259 241 234 238 243 223 212 216 211 204 203 205 207 213 207 202 204 200 205 202 203 210 209 211 211 200 185 166 176 178 176 190 183 181 194 187 194 197 200 204 199 200 191 189 183 169 166 155 151 164 159 157 141 135 141 152 151 146 125 116
128 115 131 95 20 19 39 348 36 131 263 251 164 188 148 226 280 272 262 328 289 228 223 243 262 264 252 252 260 262 262 264 269 269 272 273 288 270 255 248 241 241 223 217 217 208 203 205 204 213 216 209 204 203 202 207 204 208 213 212 212 212 199 193 194 193 183 182 189 179 184 180 194 199 183 192 204 198 189 185 177 155 154 151 154 150 141 141 139 135 130 136 134 126 127 125 128
82 101 107 120 172 83 250 58 227 218 219 247 121 140 1 242 248 291 276 258 274 212 220 231 242 259 277 307 290 286 263 255 260 263 264 270 262 275 261 258 258 242 228 220 216 208 207 205 205 212 221 211 208 201 204 206 206 210 210 212 215 208 205 201 201 201 190 192 186 179 170 186 161 181 192 194 201 187 178 168 162 157 151 149 143 144 144 136 125 123 131 137 137 140 143 134 136
149 149 161 131 134 167 200 240 336 312 284 270 144 133 270 291 291 224 232 247 240 246 234 256 268 271 280 288 291 279 270 249 254 254 258 263 268 269 258 257 252 251 243 234 226 217 212 209 207 214 225 209 208 205 208 208 213 213 210 212 212 205 209 201 202 200 192 194 188 189 179 183 174 185 176 197 189 182 178 171 161 155 154 143 148 145 141 130 132 138 141 135 140 140 130 123 134
190 101 149 176 127 154 189 182 190 209 203 189 290 88 239 94 239 209 230 249 271 263 255 246 246 236 236 261 269 270 273 271 255 259 260 266 267 253 258 249 246 240 237 228 220 216 208 214 211 217 225 215 202 207 205 212 214 213 212 212 212 208 207 202 203 198 185 188 190 189 189 191 187 192 193 188 164 171 165 151 151 146 149 148 136 126 127 129 130 127 128 129 126 130 125 125 126
224 161 69 116 228 136 141 208 136 209 210 290 199 212 196 183 267 291 213 242 263 259 263 263 278 289 310 282 258 255 258 266 271 263 267 262 253 253 244 248 247 245 244 243 226 209 201 211 207 214 217 213 204 203 210 211 214 211 212 211 212 208 204 199 198 191 189 190 186 187 189 190 191 188 175 156 170 161 155 145 137 137 142 137 140 141 140 138 141 134 130 127 120 125 127 126 131
209 112 211 209 137 97 97 60 71 117 42 259 166 293 275 296 296 247 275 273 277 271 246 267 273 276 286 272 265 271 273 271 274 263 259 266 269 251 237 235 242 241 247 229 228 216 217 210 209 219 223 223 210 209 210 208 210 207 210 209 206 203 197 198 197 193 189 188 186 190 185 189 181 171 167 164 157 163 149 147 143 141 140 138 136 133 131 137 141 134 133 119 108 95 98 121 131
105 190 215 136 121 112 132 197 352 53 186 267 132 235 282 26 282 316 11 316 282 275 279 257 224 245 256 256 276 275 269 263 263 270 270 264 258 262 255 240 228 223 216 224 227 221 220 218 211 219 225 223 225 212 212 209 209 212 208 205 203 199 198 199 195 190 183 179 187 183 166 162 178 174 164 163 158 151 144 141 138 135 135 133 131 119 129 135 131 119 101 91 115 100 100 109 112
154 192 186 135 231 250 281 94 235 113 252 261 286 279 267 200 240 307 311 313 286 283 262 291 278 249 243 266 270 280 286 291 283 274 274 263 247 247 252 246 240 226 222 220 215 203 208 218 219 208 220 223 223 220 224 227 219 213 208 204 200 198 197 193 189 181 175 182 183 180 179 179 159 154 153 153 153 146 144 142 140 138 137 132 122 129 132 130 125 109 100 121 137 134 133 130 129
76 91 138 181 103 166 143 197 174 123 224 60 287 34 252 193 216 199 236 248 262 269 286 270 259 251 247 255 267 274 286 278 280 276 269 266 254 242 233 231 230 209 200 206 208 195 210 214 214 224 240 243 236 218 208 213 211 211 207 197 200 197 192 188 183 178 182 186 185 182 177 164 172 163 164 160 156 153 149 144 146 144 138 134 126 109 119 119 98 113 134 139 146 138 130 130 129
137 144 183 184 145 255 117 78 148 170 173 183 257 310 261 252 212 182 207 226 233 233 245 261 261 250 239 244 258 270 270 276 273 274 282 280 273 271 267 260 278 289 250 228 201 200 204 187 202 207 210 215 216 216 210 218 204 206 198 196 193 190 192 189 185 185 185 189 186 181 179 175 154 167 159 158 154 155 151 148 149 152 145 144 134 116 128 118 133 140 145 145 151 140 128 123 126
180 176 191 188 151 154 159 235 40 106 113 234 152 257 255 253 173 187 198 220 217 230 222 246 305 306 266 261 252 240 283 281 267 269 269 275 284 292 299 286 265 272 243 223 215 202 199 198 210 202 212 222 212 209 203 206 207 204 206 200 196 193 191 187 188 187 190 188 180 178 168 150 169 164 164 157 155 154 152 150 151 152 146 142 142 147 150 145 144 146 145 150 147 136 126 129 130